EW7757 Weather Reports


time (UTC)temp
F
wind
direction
speed
knots
gust
knots
rain 1hr
in
rain 24hr
in
rain mn
in
humidity
%
barometer
mb
20260510130045 50 180 0.0 2.6 0.00 0.01 0.00 90 1030.2
20260510124553 50 180 0.0 2.6 0.00 0.01 0.00 90 1030.3
20260510123047 50 180 0.9 3.5 0.00 0.01 0.00 91 1030.3
20260510121549 49 180 0.9 2.6 0.00 0.01 0.00 92 1030.4
20260510120046 49 180 1.7 4.3 0.00 0.01 0.00 92 1030.4
20260510114553 50 180 1.7 4.3 0.00 0.01 0.00 91 1030.4
20260510113045 50 76 1.7 6.1 0.00 0.01 0.00 91 1030.4
20260510111544 50 74 1.7 4.3 0.00 0.01 0.00 91 1030.1
20260510110043 50 180 1.7 3.5 0.00 0.01 0.00 91 1030.0
20260510104542 50 74 0.0 0.9 0.00 0.01 0.00 90 1029.8
20260510103047 51 72 1.7 4.3 0.00 0.01 0.00 90 1029.8
20260510101539 51 180 2.6 5.2 0.00 0.01 0.00 89 1029.7
20260510100052 51 180 0.0 3.5 0.00 0.01 0.00 88 1029.5
20260510094538 52 180 1.7 4.3 0.00 0.01 0.00 88 1029.4
20260510093044 52 180 1.7 4.3 0.00 0.01 0.00 87 1029.3
20260510091537 53 72 2.6 7.0 0.00 0.01 0.00 86 1029.1
20260510090036 54 83 3.5 6.1 0.00 0.01 0.00 85 1028.8
20260510084533 54 133 1.7 4.3 0.00 0.01 0.00 84 1028.5
20260510083029 55 180 1.7 5.2 0.00 0.01 0.00 83 1028.2
20260510081527 55 68 1.7 7.0 0.00 0.01 0.00 81 1027.9
20260510080027 56 131 1.7 4.3 0.00 0.01 0.00 78 1027.7
20260510074528 57 65 1.7 4.3 0.00 0.01 0.00 75 1027.5
20260510073028 58 63 0.0 4.3 0.00 0.01 0.00 72 1027.1
20260510071536 60 70 2.6 7.0 0.00 0.01 0.00 65 1027.0
20260510070028 61 67 0.9 5.2 0.00 0.01 0.00 62 1026.6
20260510064528 62 43 0.0 4.3 0.00 0.01 0.00 60 1026.5
20260510063029 63 180 1.7 4.3 0.00 0.01 0.00 58 1026.2
20260510061540 64 19 0.9 6.1 0.00 0.01 0.00 56 1026.1
20260510060029 65 20 0.9 7.0 0.00 0.01 0.00 55 1026.0
20260510054526 66 64 0.0 2.6 0.00 0.01 0.00 55 1026.0
20260510053024 66 54 0.9 2.6 0.00 0.01 0.00 55 1025.9
20260510051525 66 11 0.9 4.3 0.00 0.01 0.00 55 1025.8
20260510050023 66 345 0.9 4.3 0.00 0.01 0.00 52 1025.8
20260510044524 66 85 0.9 4.3 0.00 0.01 0.00 51 1025.8
20260510043023 66 9 0.0 4.3 0.00 0.01 0.00 54 1025.8
20260510041521 66 326 2.6 6.1 0.00 0.01 0.00 52 1025.9
20260510040019 65 348 0.9 4.3 0.00 0.01 0.00 54 1025.9
20260510034521 65 66 1.7 4.3 0.00 0.01 0.00 54 1025.9
20260510033019 64 38 1.7 4.3 0.00 0.01 0.00 55 1026.0
20260510031534 64 62 0.0 2.6 0.00 0.01 0.00 51 1026.1
20260510030020 65 10 0.0 2.6 0.00 0.01 0.00 54 1026.2
20260510024512 64 58 0.9 8.7 0.00 0.01 0.00 57 1026.4
20260510023007 63 302 0.0 4.3 0.00 0.01 0.00 57 1026.7
20260510021505 63 318 2.6 6.1 0.00 0.01 0.00 55 1027.0
20260510020003 63 91 0.0 5.2 0.00 0.01 0.00 58 1027.2
20260510014559 62 83 0.9 4.3 0.00 0.01 0.00 56 1027.4
20260510013057 62 122 0.9 4.3 0.00 0.01 0.00 56 1027.6
20260510011557 61 69 0.0 4.3 0.00 0.01 0.00 59 1027.6
20260510010053 61 350 0.9 2.6 0.00 0.01 0.00 61 1027.7
20260510004556 60 89 2.6 4.3 0.00 0.01 0.00 62 1027.8
20260510003108 59 180 0.9 3.5 0.00 0.01 0.00 66 1027.8
20260510001546 58 180 0.9 5.2 0.00 0.01 0.00 68 1027.8
20260510000046 57 180 2.6 5.2 0.00 0.01 0.00 70 1027.7
20260509234554 56 180 2.6 5.2 0.00 0.01 0.00 75 1027.8
20260509233033 54 180 0.0 4.3 0.00 0.01 0.00 84 1027.8
20260509231536 52 180 0.0 3.5 0.00 0.01 0.00 93 1027.8
20260509230031 50 180 0.0 0.0 0.00 0.01 0.00 95 1027.9
20260509224525 48 257 0.0 0.0 0.00 0.01 0.00 95 1028.0
20260509223019 48 251 0.0 0.0 0.00 0.01 0.00 95 1027.8
20260509221518 45 180 0.0 0.0 0.00 0.01 0.01 95 1027.7
20260509220017 42 180 0.0 0.0 0.00 0.01 0.01 95 1027.6
20260509214515 39 180 0.0 0.0 0.00 0.01 0.01 95 1027.4
20260509213117 39 180 0.0 0.0 0.00 0.01 0.01 95 1027.2
20260509211513 39 180 0.0 0.0 0.00 0.01 0.01 95 1027.0
20260509210015 39 180 0.0 0.0 0.00 0.01 0.01 95 1026.8
20260509204512 38 180 0.0 0.0 0.00 0.01 0.01 95 1026.7
20260509203014 38 180 0.0 0.0 0.00 0.01 0.01 95 1026.5
20260509201510 38 180 0.0 0.0 0.00 0.01 0.01 95 1026.3
20260509200008 38 180 0.0 0.0 0.00 0.01 0.01 95 1026.2
20260509194510 38 180 0.0 0.0 0.00 0.01 0.01 94 1025.9
20260509193003 39 180 0.0 0.0 0.00 0.01 0.01 94 1025.8
20260509191503 39 180 0.0 0.0 0.00 0.01 0.01 94 1025.6
20260509190100 40 180 0.0 0.0 0.00 0.01 0.01 95 1025.5
20260509184602 40 180 0.0 0.0 0.00 0.01 0.01 94 1025.3
20260509183135 40 180 0.0 0.0 0.01 0.01 0.01 94 1025.2
20260509181609 41 180 0.0 0.0 0.01 0.01 0.01 94 1025.0
20260509180053 41 180 0.0 1.7 0.01 0.01 0.01 95 1024.9
20260509174553 41 180 0.0 0.0 0.01 0.01 0.01 95 1024.8
20260509173058 41 180 0.0 0.0 0.00 0.00 0.00 94 1024.9
20260509171552 41 180 0.0 0.0 0.00 0.00 0.00 94 1024.8
20260509170053 42 180 0.0 0.0 0.00 0.00 0.00 94 1024.7
20260509164558 42 180 0.0 0.0 0.00 0.00 0.00 95 1024.7
20260509163051 42 180 0.0 0.0 0.00 0.00 0.00 94 1024.7
20260509161549 42 180 0.0 0.0 0.00 0.00 0.00 94 1024.7
20260509160049 42 180 0.0 0.0 0.00 0.00 0.00 94 1024.7
20260509154555 42 180 0.0 0.0 0.00 0.00 0.00 94 1024.8
20260509153050 42 180 0.0 0.0 0.00 0.00 0.00 94 1024.8
20260509151550 42 180 0.0 0.0 0.00 0.00 0.00 94 1024.8
20260509150049 42 180 0.0 0.0 0.00 0.00 0.00 94 1024.8
20260509144548 42 180 0.0 0.0 0.00 0.00 0.00 94 1025.0
20260509143045 43 180 0.0 0.0 0.00 0.00 0.00 93 1024.8
20260509141544 43 180 0.0 0.0 0.00 0.00 0.00 94 1024.8
20260509140051 43 180 0.0 0.0 0.00 0.00 0.00 94 1024.8
20260509134542 44 180 0.0 0.0 0.00 0.00 0.00 94 1024.8
20260509133041 44 180 0.0 0.0 0.00 0.00 0.00 94 1024.9
20260509131540 44 180 0.0 0.0 0.00 0.00 0.00 94 1025.0